SQ3MKP-13 Weather Reports


time (UTC)temp
C
wind
direction
speed
KPH
gust
KPH
rain 1hr
cm
rain 24hr
cm
rain mn
cm
humidity
%
barometer
mb
20260502231837 11 90 0.0 0.0 0.00 0.00 0.00 63 1007.5
20260502231336 11 108 0.0 0.0 0.00 0.00 0.00 62 1007.5
20260502230835 12 117 0.0 0.0 0.00 0.00 0.00 61 1007.5
20260502230335 12 90 0.0 0.0 0.00 0.00 0.00 59 1007.5
20260502225833 12 106 0.0 0.0 0.00 0.00 0.00 58 1007.6
20260502225332 12 106 3.2 3.2 0.00 0.00 0.00 58 1007.7
20260502224832 11 101 0.0 0.0 0.00 0.00 0.00 59 1007.7
20260502224331 11 109 0.0 0.0 0.00 0.00 0.00 61 1007.8
20260502223829 12 108 0.0 0.0 0.00 0.00 0.00 59 1007.8
20260502223328 12 126 1.6 3.2 0.00 0.00 0.00 58 1007.8
20260502222828 13 110 0.0 3.2 0.00 0.00 0.00 55 1007.8
20260502222327 13 99 0.0 0.0 0.00 0.00 0.00 53 1007.9
20260502221826 13 115 0.0 0.0 0.00 0.00 0.00 53 1007.9
20260502221325 13 108 0.0 3.2 0.00 0.00 0.00 53 1007.8
20260502220824 13 102 0.0 0.0 0.00 0.00 0.00 54 1007.9
20260502220324 13 81 0.0 0.0 0.00 0.00 0.00 53 1007.9
20260502215823 13 98 0.0 0.0 0.00 0.00 0.00 53 1007.9
20260502215322 13 96 0.0 0.0 0.00 0.00 0.00 53 1007.9
20260502214821 14 120 0.0 0.0 0.00 0.00 0.00 51 1007.9
20260502214320 15 132 0.0 3.2 0.00 0.00 0.00 48 1007.9
20260502213819 15 192 0.0 0.0 0.00 0.00 0.00 46 1008.0
20260502213318 15 172 0.0 3.2 0.00 0.00 0.00 46 1008.0
20260502212817 15 138 3.2 3.2 0.00 0.00 0.00 46 1008.0
20260502212316 15 192 1.6 4.8 0.00 0.00 0.00 46 1008.0
20260502211816 15 168 0.0 3.2 0.00 0.00 0.00 46 1008.0
20260502211315 15 204 1.6 4.8 0.00 0.00 0.00 47 1008.1
20260502210813 15 126 1.6 3.2 0.00 0.00 0.00 47 1008.2
20260502210313 15 162 1.6 3.2 0.00 0.00 0.00 47 1008.2
20260502205811 15 153 0.0 3.2 0.00 0.00 0.00 46 1008.2
20260502205311 15 155 0.0 3.2 0.00 0.00 0.00 46 1008.2
20260502204810 16 186 0.0 3.2 0.00 0.00 0.00 47 1008.2
20260502204309 16 143 0.0 1.6 0.00 0.00 0.00 47 1008.2
20260502203808 16 157 0.0 0.0 0.00 0.00 0.00 47 1008.3
20260502203307 16 186 0.0 3.2 0.00 0.00 0.00 47 1008.3
20260502202806 16 217 0.0 0.0 0.00 0.00 0.00 45 1008.3
20260502202305 16 134 1.6 3.2 0.00 0.00 0.00 45 1008.2
20260502201804 16 124 0.0 3.2 0.00 0.00 0.00 45 1008.2
20260502201304 16 142 0.0 3.2 0.00 0.00 0.00 44 1008.2
20260502200803 17 175 0.0 3.2 0.00 0.00 0.00 45 1008.2
20260502200302 17 182 0.0 3.2 0.00 0.00 0.00 44 1008.2
20260502195801 17 174 3.2 3.2 0.00 0.00 0.00 44 1008.3
20260502195300 17 125 3.2 4.8 0.00 0.00 0.00 43 1008.3
20260502194759 17 133 1.6 4.8 0.00 0.00 0.00 43 1008.3
20260502194258 18 174 3.2 6.4 0.00 0.00 0.00 42 1008.3
20260502193757 18 160 3.2 6.4 0.00 0.00 0.00 43 1008.3
20260502193256 18 141 1.6 3.2 0.00 0.00 0.00 43 1008.4
20260502192756 18 133 1.6 6.4 0.00 0.00 0.00 43 1008.3
20260502192254 18 149 3.2 4.8 0.00 0.00 0.00 43 1008.3
20260502191754 18 120 3.2 6.4 0.00 0.00 0.00 42 1008.3
20260502191253 18 96 3.2 4.8 0.00 0.00 0.00 42 1008.3
20260502190752 18 89 3.2 6.4 0.00 0.00 0.00 44 1008.3
20260502190251 18 106 1.6 3.2 0.00 0.00 0.00 43 1008.4
20260502185750 18 109 3.2 3.2 0.00 0.00 0.00 45 1008.3
20260502185250 19 108 1.6 4.8 0.00 0.00 0.00 41 1008.4
20260502184749 19 108 0.0 3.2 0.00 0.00 0.00 43 1008.5
20260502184248 19 111 0.0 0.0 0.00 0.00 0.00 41 1008.5
20260502183747 20 114 1.6 3.2 0.00 0.00 0.00 40 1008.5
20260502183246 20 132 3.2 3.2 0.00 0.00 0.00 41 1008.4
20260502182745 20 120 3.2 4.8 0.00 0.00 0.00 38 1008.3
20260502182244 20 119 3.2 3.2 0.00 0.00 0.00 38 1008.3
20260502181743 20 120 3.2 3.2 0.00 0.00 0.00 38 1008.3
20260502181242 21 132 1.6 3.2 0.00 0.00 0.00 37 1008.3
20260502180742 21 101 0.0 0.0 0.00 0.00 0.00 38 1008.3
20260502180241 21 124 1.6 3.2 0.00 0.00 0.00 37 1008.3
20260502170230 23 338 6.4 12.9 0.00 0.00 0.00 32 1008.5
20260502164227 24 168 4.8 8.0 0.00 0.00 0.00 30 1008.6
20260502163726 24 169 4.8 8.0 0.00 0.00 0.00 30 1008.7
20260502163225 24 150 6.4 16.1 0.00 0.00 0.00 30 1008.8
20260502162724 24 126 6.4 11.3 0.00 0.00 0.00 31 1008.9
20260502162223 24 136 4.8 9.7 0.00 0.00 0.00 30 1008.8
20260502161723 25 159 6.4 11.3 0.00 0.00 0.00 30 1009.0
20260502161222 24 228 6.4 11.3 0.00 0.00 0.00 30 1009.1
20260502160721 24 139 8.0 16.1 0.00 0.00 0.00 30 1009.1
20260502160220 24 132 6.4 16.1 0.00 0.00 0.00 30 1009.2
20260502152213 24 131 6.4 16.1 0.00 0.00 0.00 30 1009.7
20260502151712 24 114 6.4 14.5 0.00 0.00 0.00 29 1009.8
20260502151211 25 151 6.4 12.9 0.00 0.00 0.00 28 1009.9
20260502150710 25 174 6.4 11.3 0.00 0.00 0.00 28 1009.9
20260502150209 25 168 6.4 14.5 0.00 0.00 0.00 28 1010.0
20260502130648 23 272 8.0 12.9 0.00 0.00 0.00 32 1011.3
20260502130147 24 222 6.4 16.1 0.00 0.00 0.00 31 1011.5
20260502123643 23 226 8.0 16.1 0.00 0.00 0.00 32 1011.7
20260502123142 23 249 6.4 12.9 0.00 0.00 0.00 32 1011.8
20260502122640 24 210 4.8 9.7 0.00 0.00 0.00 33 1011.9
20260502122139 23 266 4.8 8.0 0.00 0.00 0.00 31 1011.9
20260502121638 23 150 4.8 6.4 0.00 0.00 0.00 32 1012.0
20260502121137 23 221 6.4 8.0 0.00 0.00 0.00 32 1012.1
20260502120636 23 269 4.8 11.3 0.00 0.00 0.00 32 1012.1
20260502120135 23 108 3.2 9.7 0.00 0.00 0.00 31 1012.2
20260502115634 24 299 6.4 11.3 0.00 0.00 0.00 32 1012.3
20260502115133 23 266 8.0 11.3 0.00 0.00 0.00 32 1012.3
20260502114632 23 304 6.4 11.3 0.00 0.00 0.00 33 1012.4
20260502114131 23 342 6.4 11.3 0.00 0.00 0.00 32 1012.4
20260502113631 23 247 8.0 16.1 0.00 0.00 0.00 33 1012.5
20260502113130 23 179 9.7 16.1 0.00 0.00 0.00 33 1012.6
20260502112629 23 261 4.8 8.0 0.00 0.00 0.00 33 1012.5
20260502112128 23 145 4.8 9.7 0.00 0.00 0.00 32 1012.6
20260502111627 22 198 4.8 9.7 0.00 0.00 0.00 33 1012.7
20260502111126 23 296 6.4 14.5 0.00 0.00 0.00 34 1012.8
20260502110625 23 292 6.4 9.7 0.00 0.00 0.00 33 1012.7
20260502110124 24 271 4.8 9.7 0.00 0.00 0.00 32 1012.8
20260502105624 23 131 6.4 11.3 0.00 0.00 0.00 32 1012.8
20260502105123 23 151 6.4 12.9 0.00 0.00 0.00 32 1012.9
20260502104622 22 175 4.8 11.3 0.00 0.00 0.00 33 1013.0
20260502104121 22 2 6.4 11.3 0.00 0.00 0.00 34 1013.1
20260502103620 23 141 6.4 9.7 0.00 0.00 0.00 33 1013.1
20260502103119 23 203 4.8 9.7 0.00 0.00 0.00 34 1013.2
20260502102618 23 276 8.0 12.9 0.00 0.00 0.00 35 1013.2
20260502102117 23 212 6.4 12.9 0.00 0.00 0.00 36 1013.2
20260502101616 23 230 4.8 9.7 0.00 0.00 0.00 36 1013.3
20260502101115 22 202 4.8 11.3 0.00 0.00 0.00 34 1013.4
20260502100614 22 210 8.0 14.5 0.00 0.00 0.00 34 1013.4
20260502100114 22 216 4.8 6.4 0.00 0.00 0.00 34 1013.5
20260502091104 22 168 3.2 6.4 0.00 0.00 0.00 39 1013.9
20260502090603 22 130 4.8 8.0 0.00 0.00 0.00 41 1014.0
20260502090104 21 137 4.8 9.7 0.00 0.00 0.00 42 1014.0
20260502071041 17 270 3.2 4.8 0.00 0.00 0.00 52 1014.4
20260502070541 17 253 1.6 4.8 0.00 0.00 0.00 50 1014.4
20260502070040 16 180 3.2 4.8 0.00 0.00 0.00 54 1014.5
20260502065539 16 272 3.2 6.4 0.00 0.00 0.00 55 1014.5
20260502065038 16 187 3.2 6.4 0.00 0.00 0.00 54 1014.5
20260502064537 16 247 1.6 4.8 0.00 0.00 0.00 56 1014.5
20260502064036 15 179 0.0 3.2 0.00 0.00 0.00 57 1014.5
20260502063535 15 247 3.2 4.8 0.00 0.00 0.00 57 1014.5
20260502063034 15 245 3.2 4.8 0.00 0.00 0.00 58 1014.6
20260502062533 15 181 0.0 3.2 0.00 0.00 0.00 55 1014.6
20260502062033 14 240 3.2 4.8 0.00 0.00 0.00 59 1014.6
20260502061532 13 90 3.2 6.4 0.00 0.00 0.00 59 1014.7
20260502061031 13 173 3.2 6.4 0.00 0.00 0.00 59 1014.6
20260502060530 13 166 3.2 4.8 0.00 0.00 0.00 60 1014.6
20260502060029 13 243 3.2 6.4 0.00 0.00 0.00 61 1014.5
20260502055528 14 198 0.0 3.2 0.00 0.00 0.00 59 1014.6
20260502055027 13 270 1.6 3.2 0.00 0.00 0.00 58 1014.5
20260502054527 13 146 0.0 3.2 0.00 0.00 0.00 60 1014.6
20260502054025 12 250 1.6 3.2 0.00 0.00 0.00 63 1014.6
20260502053524 12 186 1.6 4.8 0.00 0.00 0.00 64 1014.7
20260502053023 12 144 1.6 4.8 0.00 0.00 0.00 62 1014.6
20260502052522 12 213 0.0 0.0 0.00 0.00 0.00 62 1014.6
20260502052021 13 130 0.0 0.0 0.00 0.00 0.00 61 1014.6
20260502051520 12 76 0.0 0.0 0.00 0.00 0.00 63 1014.6
20260502051019 12 66 0.0 0.0 0.00 0.00 0.00 64 1014.6
20260502050519 11 88 0.0 0.0 0.00 0.00 0.00 65 1014.6
20260502050018 11 84 0.0 0.0 0.00 0.00 0.00 67 1014.6
20260502045517 11 98 0.0 0.0 0.00 0.00 0.00 69 1014.5
20260502045016 11 48 0.0 0.0 0.00 0.00 0.00 67 1014.6
20260502044515 11 96 0.0 0.0 0.00 0.00 0.00 69 1014.6
20260502044014 11 76 0.0 0.0 0.00 0.00 0.00 67 1014.6
20260502043513 10 94 0.0 0.0 0.00 0.00 0.00 67 1014.6
20260502043013 10 85 0.0 0.0 0.00 0.00 0.00 69 1014.5
20260502042511 9 72 0.0 0.0 0.00 0.00 0.00 72 1014.5
20260502042010 8 78 0.0 0.0 0.00 0.00 0.00 75 1014.5
20260502041510 8 86 0.0 0.0 0.00 0.00 0.00 75 1014.5
20260502041009 7 48 0.0 0.0 0.00 0.00 0.00 78 1014.5
20260502040508 8 75 0.0 0.0 0.00 0.00 0.00 82 1014.4
20260502040007 7 94 0.0 0.0 0.00 0.00 0.00 81 1014.5
20260502035506 6 120 0.0 0.0 0.00 0.00 0.00 82 1014.4
20260502035005 6 126 0.0 0.0 0.00 0.00 0.00 85 1014.4
20260502034504 6 132 0.0 0.0 0.00 0.00 0.00 85 1014.4
20260502034004 6 149 0.0 0.0 0.00 0.00 0.00 85 1014.5
20260502033503 6 155 0.0 0.0 0.00 0.00 0.00 85 1014.5
20260502033002 6 156 0.0 0.0 0.00 0.00 0.00 83 1014.5
20260502032501 6 103 0.0 0.0 0.00 0.00 0.00 83 1014.5
20260502032000 6 96 0.0 0.0 0.00 0.00 0.00 83 1014.6
20260502031459 6 96 0.0 0.0 0.00 0.00 0.00 85 1014.6
20260502030958 6 78 0.0 0.0 0.00 0.00 0.00 85 1014.6
20260502030457 6 85 0.0 0.0 0.00 0.00 0.00 86 1014.6
20260502025956 6 115 0.0 0.0 0.00 0.00 0.00 85 1014.6
20260502025456 6 142 0.0 0.0 0.00 0.00 0.00 84 1014.6
20260502024454 7 132 0.0 0.0 0.00 0.00 0.00 82 1014.6
20260502023953 7 121 0.0 0.0 0.00 0.00 0.00 80 1014.6
20260502023452 7 95 0.0 0.0 0.00 0.00 0.00 80 1014.6
20260502022951 8 85 0.0 0.0 0.00 0.00 0.00 79 1014.6
20260502022450 7 76 1.6 3.2 0.00 0.00 0.00 78 1014.7
20260502021950 7 97 0.0 3.2 0.00 0.00 0.00 82 1014.6
20260502021449 7 98 0.0 0.0 0.00 0.00 0.00 82 1014.7
20260502020949 7 66 0.0 0.0 0.00 0.00 0.00 82 1014.6
20260502020447 7 44 0.0 0.0 0.00 0.00 0.00 82 1014.6
20260502015946 7 78 0.0 0.0 0.00 0.00 0.00 81 1014.7
20260502015445 8 126 0.0 0.0 0.00 0.00 0.00 81 1014.7
20260502014944 7 126 0.0 0.0 0.00 0.00 0.00 81 1014.7
20260502014443 7 162 0.0 0.0 0.00 0.00 0.00 81 1014.7
20260502013943 8 354 0.0 0.0 0.00 0.00 0.00 79 1014.6
20260502013442 8 4 0.0 0.0 0.00 0.00 0.00 78 1014.7
20260502012941 8 32 0.0 0.0 0.00 0.00 0.00 77 1014.7
20260502012440 8 84 0.0 0.0 0.00 0.00 0.00 76 1014.7
20260502011939 8 114 0.0 0.0 0.00 0.00 0.00 77 1014.7
20260502011438 8 162 0.0 0.0 0.00 0.00 0.00 75 1014.7
20260502010937 8 102 0.0 0.0 0.00 0.00 0.00 74 1014.8
20260502010437 8 94 0.0 0.0 0.00 0.00 0.00 75 1014.8
20260502005936 8 102 0.0 0.0 0.00 0.00 0.00 75 1014.8
20260502005435 8 95 0.0 0.0 0.00 0.00 0.00 75 1014.9
20260502004934 8 96 0.0 0.0 0.00 0.00 0.00 75 1014.9
20260502004433 8 83 0.0 0.0 0.00 0.00 0.00 76 1015.0
20260502003932 8 83 0.0 0.0 0.00 0.00 0.00 75 1015.0
20260502003431 8 114 0.0 0.0 0.00 0.00 0.00 76 1015.0
20260502002930 8 97 0.0 0.0 0.00 0.00 0.00 76 1015.0
20260502002430 8 96 0.0 0.0 0.00 0.00 0.00 75 1015.1
20260502001929 9 90 0.0 0.0 0.00 0.00 0.00 75 1015.1
20260502001428 9 94 0.0 0.0 0.00 0.00 0.00 74 1015.1
20260502000927 8 60 0.0 0.0 0.00 0.00 0.00 75 1015.1
20260502000426 8 78 0.0 0.0 0.00 0.00 0.00 76 1015.1
20260501235925 8 138 0.0 0.0 0.00 0.00 0.00 76 1015.1
20260501235424 8 76 0.0 0.0 0.00 0.00 0.00 75 1015.1
20260501234923 9 104 0.0 0.0 0.00 0.00 0.00 75 1015.1
20260501234422 9 97 0.0 0.0 0.00 0.00 0.00 75 1015.1
20260501233922 9 126 0.0 0.0 0.00 0.00 0.00 75 1015.1
20260501233421 8 342 0.0 0.0 0.00 0.00 0.00 75 1015.2
20260501232920 8 48 0.0 0.0 0.00 0.00 0.00 76 1015.1
20260501232419 9 96 0.0 0.0 0.00 0.00 0.00 75 1015.2